Погода в Петропавловске

Россия / Республика Саха (Якутия)     60°22′10″N   134°27′25″E
темп.,
°C
ветер,
м/с
пор.,
м/с
влажн.,
%
обл.,
%
осадки,
мм/ч
давл.,
гПа
погр.,
м
28 июня, вт
вт2800:00+16ююз1196100 0.3 99829
03:00+15ю229721 0.3 99824
06:00+18ю249047 0.1 998223
09:00+24ююз345976 0.1 998970
12:00+26юз474998 0.4 9961883
15:00+25юз475298 0.6 9961313
18:00+21зюз377771 1.0 997184
21:00+17зюз229275 2.6 99825
29 июня, ср
ср2900:00+15з229610 0.2 100024
03:00+14зсз11987 0.2 100220
06:00+16сз128894 0.0 1003239
09:00+21зсз236163 0.0 10041241
12:00+24зсз244559 0.0 10041845
15:00+25сз244277 0.0 10041999
18:00+24с2450100 0.0 1005625
21:00+18в117421 0.0 100611
30 июня, чт
чт3000:00+16ююв11765 0.0 100611
03:00+17ююв237455 0.0 100669
06:00+19ююв2569100 0.0 1006183
09:00+26ююз3648100 0.0 1005768
12:00+24з275798 0.0 1004232
15:00+29з474277 0.0 10031822
18:00+22сз378912 1.9 1005493
21:00+19с37945 2.5 1006223
1 июля, пт
пт100:00+14ссв229696 0.0 100628
03:00+13ссв1196100 0.0 100713
06:00+15ссв1293100 0.0 1007127
09:00+18св128095 0.0 1007351
12:00+23с1246100 0.0 10061084
15:00+25ссз1340100 0.0 10041670
18:00+21ссв2760100 0.0 1003248
21:00+18ююз1269100 0.1 100425
2 июля, сб
сб200:00+13зюз229782 0.1 100443
03:00+12зсз11965 0.1 100415
06:00+16ссз246995 0.0 1005202
09:00+22ссз35460 0.0 10041170
12:00+26с34350 0.0 10032101
15:00+27ссв33320 0.0 10032267
18:00+25св234328 0.0 1003871
21:00+18в0064100 0.0 100411